User: anonymous   Login
Location: Unspecified
(0.0000°N, 0.0000°E)
Time: 00:16:07
(UTC+00:00)
Language:

Sedsat-1 - Orbit

View from above orbital plane
View from above orbital plane
View from above satellite
View from above satellite

Ground track
Ground track

The orbit data is extracted from the following two-line orbital elements,

1 25509U 98061B   17328.86454337  .00000142  00000-0  15781-4 0  9999
2 25509  31.4327 233.9533 0346782 333.6285  24.7058 14.30306890997163
Epoch (UTC): 24 November 2017 20:44:56
Eccentricity: 0.0346782
inclination: 31.4327°
perigee height: 542 km
apogee height: 1039 km
right ascension of ascending node: 233.9533°
argument of perigee: 333.6285°
revolutions per day: 14.30306890
mean anomaly at epoch: 24.7058°
orbit number at epoch: 99716

The dashed part of the orbit path shows where the satellite is in the earth's shadow,  

DLR